Wind_Speed
19 20 20 20 19 20 20 22 22 23 23 23 22 27 25 25 20 17 18 25 17 14 17 17 11 10 7 7 13 9 11 10 7 8 7 7 9 11 14 11 15 16 21 30 30 27 28
20 19 20 22 20 22 24 22 25 26 24 22 25 24 27 24 25 24 17 17 22 18 17 15 10 9 8 10 4 6 6 6 7 8 8 8 8 8 12 13 18 17 20 24 28 30 27
22 21 23 21 22 23 23 24 24 26 24 26 25 27 31 29 25 23 26 15 23 20 17 13 9 7 11 17 4 6 8 7 8 10 11 10 10 9 7 13 17 16 17 17 23 25 23
20 23 23 23 25 24 25 24 25 28 24 26 26 29 30 29 27 27 24 19 24 21 11 7 8 8 9 7 9 11 8 9 9 9 12 10 8 14 20 17 17 16 15 12 12 17 20
23 24 24 25 25 26 25 24 25 25 26 29 28 29 31 31 28 32 18 23 20 13 9 6 6 9 9 9 8 8 8 9 7 8 10 9 7 12 11 11 7 9 9 14 12 15 10
24 25 24 25 26 25 28 26 29 26 27 29 29 31 32 29 28 20 8 22 12 5 7 8 8 7 12 7 8 5 4 5 5 5 7 12 8 9 5 5 8 6 14 12 13 6 18
28 25 24 26 26 26 22 26 25 26 26 26 22 30 26 27 26 19 4 5 7 3 17 10 9 5 9 8 6 5 5 7 6 6 8 16 8 10 15 15 18 18 16 16 15 9 16
28 25 26 26 28 28 28 26 24 27 28 26 25 26 26 26 25 16 16 5 2 1 7 23 15 16 5 6 4 9 9 8 6 8 12 6 12 14 6 8 12 17 18 18 5 8 11
30 28 26 26 30 25 32 29 24 25 28 27 25 21 27 23 25 13 9 14 11 3 4 6 19 17 9 10 5 11 14 6 7 8 11 13 9 5 5 8 10 13 15 11 5 10 7
36 32 28 25 26 27 30 29 25 26 26 25 24 22 22 22 16 12 13 11 3 4 3 8 9 8 10 6 5 8 12 4 5 8 12 9 12 6 7 10 8 10 11 6 6 8 2
44 38 30 23 25 27 28 28 27 26 25 26 23 21 19 16 19 11 10 9 7 2 4 9 8 9 11 9 10 8 8 6 9 7 4 2 5 7 11 6 7 5 4 5 10 10 4
55 47 26 25 28 25 28 28 28 26 27 24 24 19 18 15 12 18 14 5 10 2 5 5 7 8 9 10 6 6 5 7 8 3 6 12 5 5 5 10 10 11 7 10 13 9 1
49 46 16 25 26 20 27 29 28 28 26 26 24 19 21 19 16 5 6 14 3 5 6 5 7 9 12 8 8 8 7 5 3 2 3 1 2 4 8 6 7 8 8 3 5 1 3
36 14 19 31 21 24 27 29 29 28 28 27 25 26 25 22 11 13 8 0 6 5 5 3 9 12 6 10 5 7 2 1 3 1 2 3 2 5 6 2 1 3 4 4 4 2 4
24 23 34 23 23 24 27 28 28 29 28 30 31 27 19 12 16 13 7 3 6 5 4 6 10 9 5 5 3 4 6 3 5 9 3 0 3 5 3 4 5 3 2 5 5 5 5
29 42 30 23 22 25 28 29 29 29 31 31 32 17 14 9 24 17 1 4 4 6 3 8 2 4 5 7 5 4 3 3 2 1 3 1 3 3 5 5 5 3 6 2 1 2 5
36 34 23 21 23 26 28 28 29 30 32 34 18 9 18 25 23 7 2 3 5 8 6 4 3 4 2 5 1 2 3 3 5 3 2 4 2 1 4 5 7 3 6 3 3 3 2
35 35 23 21 22 26 27 29 29 30 32 31 12 4 16 21 4 2 1 4 4 6 6 3 3 5 2 2 3 2 6 6 9 6 3 4 4 2 2 1 2 2 9 9 4 4 4
36 30 22 22 24 26 27 28 26 27 28 20 6 8 16 3 2 2 4 4 5 4 5 6 3 5 1 2 1 4 4 4 8 6 7 5 3 1 2 2 0 6 11 10 2 3 4
35 28 19 20 24 25 26 26 24 26 26 12 5 2 4 6 3 6 3 4 3 4 5 6 3 3 3 4 3 5 5 4 5 6 6 6 5 6 6 5 4 5 11 13 6 6 12
33 25 17 22 22 22 23 24 22 22 18 7 5 2 3 2 5 2 4 3 2 4 5 4 2 2 2 2 4 4 3 5 4 5 5 6 4 4 8 6 5 4 7 11 12 11 10
30 21 18 21 19 21 21 20 18 19 13 19 5 3 4 4 2 3 3 3 2 3 4 2 2 5 2 4 5 4 2 3 4 3 4 3 2 3 3 5 5 5 7 6 8 8 10
27 19 19 19 17 19 20 18 16 14 9 5 7 7 1 5 2 3 2 3 0 3 3 5 7 3 8 7 10 9 9 9 6 4 3 3 2 3 3 6 4 3 7 5 4 4 3
24 17 18 18 16 16 18 18 15 8 4 2 5 3 2 3 1 3 4 4 4 7 4 7 8 2 3 5 9 11 11 11 11 7 5 2 3 1 1 3 2 3 4 5 4 2 4
22 17 17 17 17 16 16 14 7 3 2 5 2 2 1 2 2 3 1 3 2 4 5 6 7 6 4 5 3 2 2 2 5 6 7 5 0 1 2 1 3 1 1 2 4 5 3
20 17 17 18 19 17 14 13 7 4 3 8 4 6 1 4 3 2 3 1 2 1 4 4 4 7 5 2 1 1 3 4 2 2 4 4 3 2 1 0 0 4 3 1 3 3 3
18 15 16 18 18 20 16 10 2 4 9 8 9 6 1 2 1 1 1 3 3 1 3 3 1 5 7 2 1 1 2 3 1 2 1 1 2 3 1 2 2 5 3 1 2 4 4
15 13 14 16 18 18 18 9 9 8 15 10 7 3 1 2 2 3 2 1 3 2 0 5 4 2 0 2 2 1 2 1 2 2 1 3 2 2 1 2 2 5 2 2 3 3 3
14 10 11 11 12 19 13 6 10 15 12 4 4 4 4 2 3 3 4 4 5 3 0 4 3 1 2 1 1 1 2 2 3 2 2 3 2 3 3 2 2 5 3 2 2 2 2
Wind_Direction
350 352 351 347 347 343 343 342 337 337 337 337 334 331 329 295 287 290 262 242 246 261 277 277 271 252 250 237 246 248 247 256 215 205 224 242 262 265 258 272 286 265 260 268 271 268 260
349 349 345 346 344 340 336 334 334 336 335 332 331 329 321 328 289 276 273 263 255 261 269 272 262 241 227 242 211 199 213 220 205 214 222 233 251 276 297 276 269 270 277 274 266 261 257
343 344 343 342 342 338 339 337 337 331 332 328 330 326 331 332 318 301 273 267 257 264 251 267 249 221 236 238 216 210 232 225 227 228 238 243 258 252 269 277 271 282 278 277 266 257 251
341 337 338 338 337 336 333 331 332 327 333 326 327 326 319 324 320 307 275 247 253 250 250 238 219 204 245 246 215 238 235 248 248 235 233 239 251 257 260 261 274 278 275 267 251 238 234
337 336 335 335 331 332 324 325 326 327 326 323 326 325 327 326 322 315 274 222 223 227 245 214 177 208 255 238 216 224 226 236 237 227 229 233 241 243 250 243 261 224 263 243 256 203 216
333 332 330 328 326 328 325 332 328 327 328 322 321 322 320 328 332 350 202 202 202 182 152 171 213 209 229 215 179 189 199 192 187 195 224 227 228 238 213 201 251 261 227 254 255 223 198
331 331 329 324 329 322 323 319 319 322 314 314 313 322 317 328 334 323 248 140 132 167 188 198 195 218 149 158 177 183 163 152 167 196 216 199 216 229 234 236 249 278 294 267 271 263 188
324 327 326 326 320 319 317 316 319 320 318 321 316 313 319 321 325 325 306 266 279 198 264 230 228 214 167 175 194 192 173 206 198 221 221 229 245 255 331 287 265 256 262 270 284 228 189
319 317 320 322 328 324 320 316 314 315 323 324 320 315 316 316 327 339 289 289 267 179 256 192 214 215 218 207 222 177 185 202 239 250 234 241 256 215 267 267 247 249 240 266 196 196 232
309 308 309 314 325 327 324 319 316 315 323 319 321 319 318 318 327 313 302 318 221 146 272 166 185 204 181 195 214 172 191 206 208 240 240 259 262 247 240 250 269 261 232 262 143 202 141
307 300 305 306 334 328 323 319 322 321 320 318 321 317 307 308 300 312 300 314 171 134 244 129 139 150 160 187 136 186 183 207 260 266 249 283 324 275 267 269 218 270 223 179 286 277 318
322 305 291 295 346 326 322 326 326 325 323 322 318 312 302 306 285 293 291 210 150 194 230 138 130 163 158 200 189 133 176 220 272 283 245 270 345 323 278 310 274 294 174 215 260 256 115
324 315 299 338 338 336 324 329 331 328 325 322 318 306 294 298 270 301 322 150 174 252 159 146 164 170 191 163 184 183 181 187 274 257 230 192 218 235 227 249 226 249 240 189 227 89 48
333 326 320 347 349 337 332 336 334 331 329 327 322 311 292 273 266 228 249 200 247 76 94 143 148 163 172 157 185 191 215 233 218 158 295 297 124 358 325 323 263 209 309 321 352 106 89
340 351 353 3 350 338 338 336 336 338 336 332 325 320 297 250 206 189 160 224 17 40 107 139 139 161 154 172 269 152 204 190 166 201 285 322 36 330 304 342 336 344 308 337 314 50 71
340 356 8 355 346 345 340 341 342 343 343 345 341 332 13 147 166 173 140 329 34 32 116 140 118 261 160 165 198 187 157 20 59 17 258 52 103 333 325 324 215 298 327 264 263 323 77
351 357 352 355 351 347 347 350 352 351 352 351 2 39 67 128 137 147 249 30 44 34 28 10 13 122 78 134 248 91 54 67 14 353 286 303 296 120 263 23 5 2 19 303 275 332 344
357 350 357 355 354 352 354 357 356 359 354 8 24 61 116 117 79 253 341 31 21 351 357 354 307 45 100 105 83 79 83 39 351 326 28 16 57 67 76 239 328 331 6 10 340 44 15
355 353 2 358 354 356 360 359 358 0 2 15 37 53 135 329 95 51 39 61 46 357 345 335 51 29 11 71 69 67 71 10 9 18 2 359 27 162 145 153 320 20 10 355 10 18 18
353 356 2 359 356 359 360 358 359 4 11 47 50 71 11 40 9 99 81 15 34 308 295 300 41 87 122 46 33 121 109 42 11 12 346 291 52 40 63 54 332 14 17 22 41 47 73
352 356 1 357 352 354 359 359 0 11 22 67 60 49 358 19 28 43 41 358 45 352 240 333 101 70 99 92 95 93 95 139 70 5 18 2 66 65 71 49 67 30 36 41 45 37 67
352 356 360 349 349 356 360 360 359 6 39 59 72 33 35 19 3 79 337 31 35 321 333 45 73 74 352 61 1 132 116 31 35 50 21 9 88 14 54 37 51 63 50 57 65 65 77
348 353 355 347 350 354 356 353 346 350 23 64 50 48 346 13 10 307 41 89 263 304 73 43 338 86 63 37 59 71 71 64 62 9 42 20 116 345 6 355 332 140 25 39 73 46 20
344 349 350 347 343 349 351 345 343 357 356 135 31 64 349 88 335 340 331 272 23 17 48 54 23 1 49 108 96 89 83 77 66 46 6 105 102 42 323 300 13 58 43 359 349 44 83
342 347 345 343 336 344 347 345 333 327 281 185 125 120 45 105 264 121 134 187 232 65 55 44 19 72 356 299 145 142 110 147 56 41 23 8 205 72 292 250 115 222 307 352 4 92 69
341 344 347 346 342 344 339 327 319 241 184 196 189 195 319 312 58 99 123 115 139 53 116 45 101 2 347 301 301 350 28 15 24 40 12 7 6 346 3 56 179 68 120 199 268 154 79
335 346 348 348 348 346 342 342 208 181 130 144 163 175 344 336 37 38 64 62 72 76 56 106 15 344 352 323 53 356 71 347 304 313 333 356 339 322 316 337 325 100 102 261 254 58 75
334 349 355 355 5 7 11 30 135 132 133 145 152 210 231 4 138 188 154 302 170 201 200 150 190 202 85 304 297 54 296 82 274 6 270 253 245 239 240 273 270 144 105 303 54 105 124
325 348 8 9 25 28 16 92 110 129 111 119 50 39 165 139 174 146 137 180 200 190 352 177 352 351 52 258 258 283 208 206 321 248 216 257 308 343 282 27 27 191 27 86 56 30 291
Height
1538 1534 1530 1525 1521 1518 1513 1509 1505 1500 1496 1492 1488 1484 1479 1475 1472 1470 1469 1469 1469 1468 1469 1469 1470 1470 1473 1473 1469 1467 1468 1469 1470 1471 1474 1477 1477 1475 1472 1472 1470 1469 1467 1464 1459 1457 1455
1536 1532 1528 1524 1520 1516 1512 1508 1503 1499 1494 1489 1485 1480 1475 1471 1468 1465 1465 1465 1464 1465 1465 1466 1467 1468 1471 1471 1464 1465 1465 1468 1469 1469 1471 1474 1475 1475 1473 1474 1472 1467 1464 1461 1456 1452 1450
1535 1531 1526 1522 1518 1514 1509 1505 1500 1496 1492 1487 1482 1477 1472 1467 1463 1461 1459 1459 1460 1461 1460 1462 1465 1467 1467 1464 1462 1463 1464 1465 1466 1467 1468 1471 1473 1475 1471 1470 1466 1466 1465 1457 1450 1446 1443
1534 1530 1524 1519 1515 1511 1507 1502 1498 1493 1488 1484 1479 1474 1469 1463 1459 1454 1451 1454 1455 1456 1458 1460 1462 1466 1462 1458 1460 1461 1462 1463 1464 1464 1467 1469 1471 1471 1471 1469 1465 1462 1456 1450 1436 1436 1438
1532 1527 1523 1518 1512 1508 1504 1499 1495 1491 1486 1481 1477 1472 1466 1461 1454 1447 1442 1447 1450 1450 1454 1458 1461 1464 1459 1454 1456 1459 1460 1461 1461 1462 1465 1467 1469 1469 1467 1465 1463 1458 1445 1435 1430 1434 1435
1529 1524 1519 1514 1509 1504 1500 1495 1491 1487 1483 1479 1474 1469 1464 1459 1453 1446 1443 1443 1445 1450 1454 1459 1459 1465 1456 1454 1454 1455 1457 1457 1459 1461 1464 1465 1467 1464 1461 1462 1446 1435 1438 1428 1424 1422 1429
1525 1521 1516 1510 1506 1500 1496 1492 1488 1485 1480 1476 1472 1467 1462 1458 1453 1449 1446 1442 1448 1452 1450 1448 1449 1450 1449 1451 1453 1454 1455 1456 1458 1459 1457 1457 1459 1453 1446 1447 1444 1437 1431 1424 1418 1414 1421
1521 1516 1511 1506 1501 1496 1492 1488 1484 1480 1476 1472 1469 1465 1459 1454 1452 1448 1446 1443 1445 1447 1445 1442 1446 1449 1449 1449 1451 1452 1454 1456 1454 1453 1452 1454 1447 1438 1442 1445 1444 1436 1428 1415 1422 1415 1420
1517 1512 1507 1502 1497 1492 1488 1483 1479 1476 1472 1468 1465 1462 1457 1452 1448 1445 1444 1444 1442 1445 1446 1438 1441 1445 1448 1449 1447 1447 1452 1451 1450 1449 1446 1445 1435 1438 1442 1440 1439 1427 1420 1419 1417 1414 1412
1512 1506 1500 1495 1491 1488 1483 1479 1474 1472 1468 1465 1461 1458 1455 1451 1449 1446 1445 1442 1439 1443 1444 1434 1439 1441 1444 1446 1445 1447 1449 1450 1448 1445 1438 1436 1432 1431 1437 1436 1432 1422 1413 1420 1413 1414 1409
1505 1498 1493 1489 1485 1482 1479 1475 1470 1467 1463 1460 1457 1455 1452 1450 1447 1445 1444 1442 1441 1444 1427 1431 1437 1438 1441 1443 1443 1445 1447 1448 1443 1437 1440 1435 1429 1428 1427 1428 1425 1419 1413 1421 1418 1408 1414
1498 1488 1482 1480 1479 1477 1474 1470 1466 1462 1458 1455 1452 1450 1447 1446 1445 1444 1442 1441 1444 1444 1421 1430 1433 1437 1440 1440 1439 1444 1446 1448 1444 1444 1440 1435 1436 1437 1430 1428 1426 1420 1420 1421 1414 1406 1410
1490 1481 1477 1476 1474 1472 1470 1467 1462 1457 1453 1449 1446 1444 1441 1441 1441 1442 1440 1441 1440 1426 1422 1431 1429 1433 1430 1434 1436 1439 1441 1444 1440 1437 1434 1436 1437 1436 1434 1432 1422 1423 1415 1418 1413 1407 1406
1484 1480 1479 1476 1472 1470 1467 1463 1458 1452 1448 1443 1439 1436 1434 1434 1437 1440 1442 1443 1425 1414 1417 1422 1425 1428 1428 1429 1429 1433 1433 1441 1444 1444 1436 1427 1426 1433 1429 1427 1425 1422 1417 1416 1405 1401 1400
1486 1481 1479 1473 1472 1470 1465 1460 1454 1449 1443 1437 1430 1423 1420 1422 1431 1438 1443 1436 1421 1419 1422 1422 1426 1425 1426 1429 1429 1432 1439 1433 1434 1439 1433 1428 1432 1433 1427 1424 1422 1413 1412 1412 1403 1389 1395
1485 1480 1475 1475 1472 1468 1463 1457 1452 1446 1440 1430 1421 1415 1414 1418 1428 1439 1442 1427 1427 1428 1425 1425 1422 1419 1419 1425 1428 1430 1428 1428 1427 1429 1429 1423 1429 1432 1424 1422 1418 1418 1415 1411 1405 1409 1407
1486 1481 1477 1475 1472 1468 1462 1457 1451 1445 1437 1429 1422 1420 1426 1427 1437 1443 1438 1434 1432 1434 1431 1429 1425 1423 1417 1424 1424 1423 1426 1430 1428 1426 1426 1422 1418 1431 1428 1424 1425 1416 1412 1408 1407 1406 1396
1487 1483 1478 1475 1472 1467 1462 1457 1451 1445 1436 1431 1426 1428 1438 1441 1444 1445 1436 1438 1441 1439 1435 1434 1430 1426 1423 1425 1425 1424 1427 1429 1431 1429 1425 1424 1421 1426 1426 1424 1425 1424 1420 1412 1408 1411 1404
1488 1483 1479 1475 1472 1468 1464 1459 1452 1447 1441 1437 1438 1441 1446 1445 1441 1442 1442 1442 1445 1443 1439 1435 1428 1430 1432 1429 1429 1429 1430 1436 1433 1431 1428 1426 1425 1425 1422 1424 1421 1420 1419 1415 1412 1410 1420
1487 1483 1479 1476 1473 1469 1465 1460 1454 1448 1444 1441 1444 1447 1450 1446 1445 1442 1443 1447 1447 1446 1443 1439 1434 1432 1431 1430 1428 1432 1433 1437 1436 1434 1434 1429 1431 1431 1431 1439 1437 1431 1425 1417 1416 1420 1420
1488 1483 1479 1477 1473 1470 1466 1461 1457 1452 1447 1445 1448 1454 1454 1450 1449 1445 1446 1450 1447 1448 1444 1439 1435 1433 1432 1433 1432 1434 1435 1436 1436 1435 1433 1429 1438 1444 1437 1438 1436 1435 1433 1426 1427 1417 1426
1488 1483 1479 1477 1472 1469 1466 1462 1458 1455 1451 1449 1452 1454 1454 1456 1454 1453 1453 1452 1451 1449 1443 1440 1437 1436 1433 1434 1434 1436 1435 1433 1435 1436 1436 1436 1442 1441 1437 1437 1436 1436 1433 1431 1430 1429 1429
1486 1481 1478 1476 1472 1469 1466 1462 1459 1456 1455 1455 1455 1454 1454 1458 1457 1455 1452 1453 1453 1448 1446 1446 1444 1438 1440 1444 1441 1441 1440 1440 1440 1438 1438 1438 1441 1441 1438 1436 1434 1429 1439 1436 1437 1434 1431
1484 1480 1477 1475 1471 1467 1465 1462 1459 1457 1456 1457 1456 1455 1455 1457 1458 1457 1456 1456 1452 1450 1446 1449 1447 1443 1450 1448 1446 1444 1443 1443 1444 1444 1442 1441 1443 1445 1443 1442 1438 1439 1442 1443 1439 1438 1439
1483 1480 1476 1473 1469 1466 1463 1461 1459 1457 1456 1456 1457 1457 1456 1457 1457 1457 1456 1455 1454 1453 1453 1453 1453 1453 1452 1450 1445 1445 1445 1444 1447 1449 1447 1444 1442 1447 1443 1435 1438 1441 1443 1443 1441 1442 1444
1481 1479 1475 1472 1468 1464 1460 1458 1456 1456 1455 1456 1457 1458 1459 1457 1456 1458 1456 1455 1455 1455 1454 1457 1457 1456 1454 1450 1446 1446 1444 1449 1448 1449 1449 1446 1443 1443 1444 1445 1438 1442 1447 1448 1446 1439 1447
1481 1477 1476 1472 1467 1462 1457 1454 1454 1455 1455 1457 1458 1459 1460 1459 1459 1458 1456 1456 1460 1460 1460 1459 1460 1458 1456 1450 1448 1446 1449 1455 1449 1448 1450 1449 1447 1446 1443 1443 1437 1443 1446 1446 1443 1452 1450
1479 1476 1474 1472 1467 1462 1456 1453 1455 1458 1458 1460 1461 1460 1460 1461 1462 1459 1459 1460 1460 1459 1456 1461 1462 1460 1458 1455 1451 1450 1448 1451 1451 1451 1453 1449 1448 1447 1446 1448 1448 1447 1448 1446 1451 1452 1452
1477 1475 1472 1471 1467 1463 1459 1456 1457 1460 1461 1463 1463 1461 1460 1461 1462 1461 1460 1459 1459 1459 1461 1461 1462 1459 1459 1457 1457 1455 1453 1456 1451 1446 1457 1453 1448 1445 1447 1443 1448 1448 1449 1450 1450 1450 1452